sat.trackr.live / text

‹ back to catalog

STARLINK-30372

NORAD 57789 · 2023-134U

PAYLOAD ACTIVE UNKNOWN

§ Identity

Operator
Country
US
Launch date
2023-09-04
Launch site
AFETR
Launch vehicle
Mass (kg)
RCS (m²)

Purposes: comms

External: N2YO · Heavens-Above · Gunter

§ Orbital elements

Epoch: 2026-09-20T21:40:04.250208Z

Period
94.27 min
Inclination
43.0003°
Eccentricity
0.0001381
Mean motion
15.27575684 rev/d
Perigee alt
482.1 km
Apogee alt
484.0 km
Semi-major
6,861.2 km
B*
2.8910e-5
RAAN
55.9141°
Arg perigee
276.6586°
Mean anomaly
83.4108°
Rev number
17,072

§ Raw data

STARLINK-303721 57789U 23134U   26263.90282697  .00000533  00000+0  28910-4 0  99952 57789  43.0003  55.9141 0001381 276.6586  83.4108 15.27575684170727

JSON: /api/v1/satellites/57789 · /tle

For live sub-satellite position, see the globe view (requires WebGL).

§ Visibility from observer

Set your observer location to see the next 7 days of passes ≥ 10°. The values pass through the URL so the page stays shareable.

No JS? Fill the form by hand. The geolocation button needs JavaScript.